BSAT-4B

Last updated on Tue Sep 16 2025 00:02:50 GMT+0000 (Coordinated Universal Time)

1 46112U 20056A 25257.96436612 -.00000365 00000+0 00000+0 0 9998 2 46112 0.0197 175.9150 0003979 349.1215 286.1494 1.00269995 18626
UTC large
Height (km)
Speed (km/s)
/
Latitude / Longitude
Inclination (degrees)
Orbital Period (minutes)
Azimuth
Elevation
Range (km)
Doppler Factor

Next 0 passes for location: London (51.5072 / 0.1276)

Sorry there are no passes over London.